Track STARLINK-5470 now! 10-day predictions STARLINK-5470 is classified as:
1 54776U 22175U 24326.13262280 .00001006 00000-0 81274-4 0 9990 2 54776 53.2158 9.6018 0001507 88.3821 271.7344 15.08843036106274